Weather History for Dubuque, IA

Change the Weather History Date:

Friday, December 14, 2012

  Actual Average Record
Temperature  
Mean Temperature 37 °F 23 °F  
Max Temperature 48 °F 30 °F 55 °F (1975)
Min Temperature 25 °F 15 °F -18 °F (1985)
Degree Days  
Heating Degree Days 28 42  
Month to date heating degree days 402 556  
Since 1 July heating degree days 1953 2056  
Cooling Degree Days 0 0  
Month to date cooling degree days 0 0  
Year to date cooling degree days 907 643  
Moisture  
Dew Point 28 °F    
Average Humidity 67    
Maximum Humidity 81    
Minimum Humidity 53    
Precipitation  
Precipitation 0.00 in 0.06 in 0.76 in (2011)
Month to date precipitation 0.45 0.98  
Year to date precipitation 22.15 35.43  
Snow  
Snow 0.00 in 0.40 in - ()
Month to date snowfall 2.9 5.2  
Since 1 July snowfall 3.3 8.0  
Snow Depth 0.00 in    
Sea Level Pressure  
Sea Level Pressure 30.07 in    
Wind  
Wind Speed 8 mph (SSE)    
Max Wind Speed 21 mph    
Max Gust Speed 24 mph    
Visibility 10 miles    
Events      
T = Trace of Precipitation, MM = Missing Value Source: NWS Daily Summary

Daily Weather History Graph

Daily Weather History Graph

Search for Another Location

Airport:

Trip Planner

Search our weather history database for the weather conditions in past years. The results will help you decide how hot, cold, wet, or windy it might be!

Date:

Astronomy

Dec. 14, 2012 Rise Set
Actual Time 7:24 AM CST 4:30 PM CST
Civil Twilight 6:52 AM CST 5:02 PM CST
Nautical Twilight 6:17 AM CST 5:38 PM CST
Astronomical Twilight 5:43 AM CST 6:12 PM CST
Moon 8:28 AM CST (12/14) 6:24 PM CST (12/14)
Length of Visible Light 10h 09m
Length of Day
9h 05m
Waxing Crescent, 3% of the Moon is Illuminated
Dec 14
Waxing Crescent
Dec 19
First Quarter
Dec 28
Full
Jan 4
Last Quarter
Jan 11
New

Hourly Weather History & Observations

Time (CST) Temp. Windchill Dew Point Humidity Pressure Visibility Wind Dir Wind Speed Gust Speed Precip Events Conditions
12:53 AM 30.9 °F - 23.0 °F 72% 30.13 in 10.0 mi Calm Calm - N/A   Clear
1:53 AM 28.9 °F 25.2 °F 21.9 °F 75% 30.14 in 10.0 mi SSW 3.5 mph - N/A   Clear
2:53 AM 26.1 °F 19.4 °F 21.0 °F 81% 30.15 in 10.0 mi SSW 5.8 mph - N/A   Clear
3:53 AM 27.0 °F - 21.0 °F 78% 30.15 in 10.0 mi Calm Calm - N/A   Clear
4:53 AM 30.0 °F - 21.9 °F 72% 30.14 in 10.0 mi Calm Calm - N/A   Clear
5:53 AM 27.0 °F - 21.0 °F 78% 30.15 in 10.0 mi Calm Calm - N/A   Clear
6:53 AM 30.9 °F 27.5 °F 21.9 °F 69% 30.15 in 10.0 mi South 3.5 mph - N/A   Clear
7:53 AM 28.9 °F - 21.9 °F 75% 30.17 in 10.0 mi Calm Calm - N/A   Clear
8:53 AM 33.1 °F 27.7 °F 26.1 °F 75% 30.16 in 10.0 mi South 5.8 mph - N/A   Clear
9:53 AM 37.0 °F - 28.9 °F 73% 30.16 in 10.0 mi Calm Calm - N/A   Clear
10:53 AM 41.0 °F 37.1 °F 28.9 °F 62% 30.13 in 10.0 mi SE 5.8 mph - N/A   Clear
11:53 AM 46.0 °F - 30.0 °F 54% 30.11 in - North - - N/A   Unknown
12:53 PM 46.9 °F - 30.0 °F 52% 30.08 in 10.0 mi SSE 10.4 mph - N/A   Clear
1:53 PM 46.9 °F - 30.0 °F 52% 30.05 in 10.0 mi SSE 8.1 mph - N/A   Clear
2:53 PM 46.9 °F - 30.0 °F 52% 30.04 in 10.0 mi SE 11.5 mph - N/A   Clear
3:53 PM 43.0 °F 38.8 °F 30.0 °F 60% 30.04 in 10.0 mi SSE 6.9 mph - N/A   Clear
4:53 PM 39.9 °F 34.5 °F 30.0 °F 68% 30.03 in 10.0 mi SE 8.1 mph - N/A   Clear
5:53 PM 39.9 °F 32.1 °F 30.0 °F 68% 30.03 in 10.0 mi SSE 13.8 mph - N/A   Clear
6:53 PM 39.9 °F 31.8 °F 30.9 °F 70% 30.01 in 10.0 mi SE 15.0 mph - N/A   Clear
7:53 PM 41.0 °F 33.5 °F 30.0 °F 65% 30.01 in 10.0 mi SSE 13.8 mph - N/A   Mostly Cloudy
8:53 PM 43.0 °F 35.1 °F 32.0 °F 65% 29.98 in 10.0 mi SSE 17.3 mph - N/A   Mostly Cloudy
9:53 PM 43.0 °F 35.4 °F 33.1 °F 68% 29.96 in 10.0 mi SSE 16.1 mph - N/A   Overcast
10:53 PM 43.0 °F 35.4 °F 34.0 °F 71% 29.93 in 10.0 mi SSE 16.1 mph - N/A   Overcast
11:53 PM 42.1 °F 33.6 °F 34.0 °F 73% 29.91 in 10.0 mi SSE 18.4 mph - N/A   Overcast